Terminal Aerodrome Forecast
Issued by NWS

Home | Current Version | Previous Version | Graphics & Text | Print | Product List | Glossary Off
Versions: 1 2 3 4 5 6 7 8 9 10 11 12 13 14 15 16 17 18 19 20 21 22 23 24 25 26 27 28 29 30 31 32 33 34 35 36 37 38 39 40 41 42 43 44 45

000
FTUS43 KDDC 242134 AAA
TAFGCK
TAF AMD
KGCK 242134Z 2422/2518 VRB15G25KT P6SM VCTS BKN050CB
      TEMPO 2422/2424 -TSRA
     FM250100 VRB05KT P6SM VCSH BKN150
     FM250500 29010KT P6SM SCT100=

USA.gov is the U.S. government's official web portal to all federal, state and local government web resources and services.